Location: Central Falls
(41.8900°N, 71.3929°W)
Time: 07:01:58
(UTC+00:00)

Altair - Pass Details

Date: 10 December 2023
Orbit: 1501 x 1682 km, 47.2° (Epoch: 29 February)

Event Time Altitude Azimuth Distance (km) Brightness Sun altitude
Rises 08:51:45 0° 179° (S) 4,896 10.2 -34.5°
Reaches altitude 10° 08:56:23 10° 162° (SSE) 3,889 9.8 -33.7°
Maximum altitude 09:02:13 17° 125° (SE) 3,297 9.8 -32.6°
Drops below altitude 10° 09:07:56 10° 88° (E) 3,821 10.4 -31.5°
Sets 09:12:22 0° 71° (ENE) 4,775 11.0 -30.7°
